TimeHST,TemperatureF,Dew PointF,Humidity,Sea Level PressureIn,VisibilityMPH,Wind Direction,Wind SpeedMPH,Gust SpeedMPH,PrecipitationIn,Events,Conditions,WindDirDegrees,DateUTC
12:08 AM,75.2,66.2,73,30.00,10.0,North,-9999.0,-,N/A,,Mostly Cloudy,0,2013-05-04 10:08:00
12:53 AM,75.9,66.0,71,29.99,10.0,North,-9999.0,-,N/A,,Scattered Clouds,0,2013-05-04 10:53:00
1:53 AM,75.9,66.9,74,29.97,10.0,North,-9999.0,-,N/A,,Scattered Clouds,0,2013-05-04 11:53:00
2:53 AM,75.9,66.9,74,29.96,10.0,North,-9999.0,-,N/A,,Mostly Cloudy,0,2013-05-04 12:53:00
3:53 AM,75.0,68.0,79,29.96,10.0,North,-9999.0,-,N/A,,Mostly Cloudy,0,2013-05-04 13:53:00
4:53 AM,73.9,68.0,82,29.96,10.0,North,-9999.0,-,N/A,,Clear,0,2013-05-04 14:53:00
5:53 AM,73.9,66.9,79,29.96,10.0,North,-9999.0,-,N/A,,Clear,0,2013-05-04 15:53:00
6:53 AM,73.9,66.9,79,29.98,10.0,South,5.8,-,N/A,,Clear,180,2013-05-04 16:53:00
7:43 AM,77.0,66.2,69,29.98,10.0,SSE,10.4,-,N/A,,Mostly Cloudy,150,2013-05-04 17:43:00
7:53 AM,77.0,66.9,71,29.99,10.0,SSE,10.4,-,N/A,,Overcast,150,2013-05-04 17:53:00
8:04 AM,75.2,68.0,78,29.99,4.0,South,15.0,-,0.00,Rain,Heavy Rain,170,2013-05-04 18:04:00
8:08 AM,73.4,68.0,83,29.99,2.0,South,15.0,-,N/A,Rain,Heavy Rain,170,2013-05-04 18:08:00
8:15 AM,73.4,68.0,83,29.99,3.0,South,15.0,-,N/A,Rain,Heavy Rain,170,2013-05-04 18:15:00
8:31 AM,73.4,69.8,88,30.00,3.0,South,15.0,-,N/A,,Overcast,170,2013-05-04 18:31:00
8:53 AM,73.0,69.1,87,30.01,3.0,South,15.0,-,N/A,Rain,Light Rain,170,2013-05-04 18:53:00
9:03 AM,73.4,68.0,83,30.01,10.0,SSE,6.9,-,0.00,,Overcast,160,2013-05-04 19:03:00
9:46 AM,73.4,69.8,88,30.01,10.0,SSE,6.9,-,0.00,,Overcast,160,2013-05-04 19:46:00
9:53 AM,75.0,70.0,84,30.01,10.0,SSE,6.9,-,0.00,,Overcast,160,2013-05-04 19:53:00
10:02 AM,75.2,69.8,83,30.01,10.0,North,-9999.0,-,N/A,,Overcast,0,2013-05-04 20:02:00
10:53 AM,75.9,69.1,79,30.01,10.0,North,-9999.0,-,N/A,,Overcast,0,2013-05-04 20:53:00
11:53 AM,79.0,68.0,69,29.99,10.0,SSE,8.1,-,N/A,,Overcast,150,2013-05-04 21:53:00
12:53 PM,80.1,69.1,69,29.97,10.0,SSW,6.9,-,N/A,,Mostly Cloudy,210,2013-05-04 22:53:00
1:53 PM,78.1,68.0,71,29.96,10.0,WSW,10.4,-,N/A,,Overcast,240,2013-05-04 23:53:00
2:53 PM,78.1,68.0,71,29.94,10.0,WSW,9.2,-,N/A,,Overcast,240,2013-05-05 00:53:00
3:53 PM,78.1,68.0,71,29.93,10.0,WSW,8.1,-,N/A,,Overcast,240,2013-05-05 01:53:00
4:53 PM,78.1,66.9,68,29.92,10.0,North,-9999.0,-,N/A,,Overcast,0,2013-05-05 02:53:00
4:55 PM,78.8,66.2,65,29.91,10.0,WSW,9.2,-,N/A,,Overcast,240,2013-05-05 02:55:00
5:53 PM,77.0,68.0,74,29.93,10.0,WSW,9.2,-,N/A,,Overcast,240,2013-05-05 03:53:00
6:53 PM,75.9,68.0,76,29.94,10.0,SSW,5.8,-,N/A,,Overcast,210,2013-05-05 04:53:00
7:08 PM,75.2,66.2,73,29.94,10.0,South,11.5,-,N/A,,Mostly Cloudy,190,2013-05-05 05:08:00
7:18 PM,75.2,66.2,73,29.94,10.0,South,11.5,-,N/A,,Scattered Clouds,190,2013-05-05 05:18:00
7:53 PM,75.9,66.9,74,29.96,10.0,South,11.5,-,N/A,,Overcast,190,2013-05-05 05:53:00
8:16 PM,75.2,66.2,73,29.96,10.0,SW,9.2,-,N/A,,Overcast,220,2013-05-05 06:16:00
8:53 PM,75.9,64.9,69,29.97,10.0,SW,9.2,-,N/A,,Overcast,220,2013-05-05 06:53:00
9:53 PM,75.9,66.0,71,29.98,10.0,SSW,9.2,-,N/A,,Overcast,210,2013-05-05 07:53:00
10:53 PM,75.9,66.0,71,29.97,10.0,North,-9999.0,-,N/A,,Overcast,0,2013-05-05 08:53:00
11:53 PM,75.0,66.0,73,29.96,10.0,North,-9999.0,-,N/A,,Overcast,0,2013-05-05 09:53:00